Regional Weather Roundup
Issued by NWS

Home | Current Version | Previous Version | Text Only | Print | Product List | Glossary On
Versions: 1 2 3 4 5 6 7 8 9 10 11 12 13 14 15 16 17 18 19 20 21 22 23 24 25 26 27 28 29 30 31 32 33 34 35 36 37 38 39 40 41 42 43 44 45 46 47 48 49 50
000
ASUS42 KTBW 042016
RWRFL
FLORIDA REGIONAL WEATHER ROUNDUP
NATIONAL WEATHER SERVICE TAMPA BAY RUSKIN FL
400 PM EDT MON MAY 04 2015

NOTE: "FAIR" INDICATES FEW OR NO CLOUDS BELOW 12,000 FEET WITH NO
SIGNIFICANT WEATHER AND/OR OBSTRUCTIONS TO VISIBILITY.


FLZ001>010-012>015-112-114-115-042100-
PANHANDLE FLORIDA

CITY           SKY/WX    TMP DP  RH WIND       PRES   REMARKS
PENSACOLA      SUNNY     80  60  50 S15       30.20F
PENSACOLA NAS  MOSUNNY   80  66  62 S14       30.20F
MILTON NAS     MOSUNNY   83  56  39 E5        30.19F
CRESTVIEW      MOSUNNY   85  53  33 NE9       30.21F
DUKE FIELD     MOSUNNY   83  50  31 E7        30.19F
VALPARAISO     MOSUNNY   80  63  56 SW8       30.20F
MARY ESTHER    SUNNY     79  63  57 S10       30.19F
PANAMA CITY    FAIR      80  64  58 S13       30.19F
TYNDALL AFB    MOSUNNY   78  64  61 S16       30.19F
APALACHICOLA   SUNNY     81  55  40 E12       30.22F

STATION/POSITION SKY/WX   TEMP    WIND        PRES    WAVE   SWELL
                          AIR SEA DIR/SP/G            HT/PER HT/PER
                          (F)     (DEG/KT/KT) (MB)    (FT/S) (FT/S)
30.1N   87.6W              74 75  120/ 14/ 16 1022.1F   5/ 7   3/ 7
29.2N   88.2W              76 76  120/ 17/ 21 1022.4F   6/ 6
28.8N   86.0W              74 75  100/ 14/ 17 1022.7S   5/ 7   3/ 7
PANAMA CITY BEAC           75 75  170/ 12/ 14 1023.1F
CAPE SAN BLAS    NOT AVBL
TOWER C                    72      60/  9/ 11 1023.0F
28.5N   84.5W              74 75   70/ 12/ 14 1022.2F   4/ 7   3/ 7

$$
FLZ011-016>038-118-127-128-134-139-239-042100-
NORTH FLORIDA

CITY           SKY/WX    TMP DP  RH WIND       PRES   REMARKS
MARIANNA       SUNNY     83  47  28 E8        30.20F
TALLAHASSEE    MOSUNNY   86  51  29 NE13G18   30.20F
PERRY          PTSUNNY   84  55  36 NE9       30.20F
CROSS CITY       N/A     81  58  45 E12G22    30.19F
LAKE CITY      PTSUNNY   79  59  50 E10G21    30.22F
GAINESVILLE    CLOUDY    77  56  48 E15G23    30.22F
MAYPORT NAS    MOSUNNY   79  61  53 NE14      30.26F
JACKSONVILLE   MOSUNNY   78  57  48 E18       30.25F
JAX NAS        MOSUNNY   83  52  34 E17       30.25F
JAX CRAIG      MOSUNNY   78  54  43 NE15G23   30.26F
JAX CECIL      MOSUNNY   77  55  47 E12G23    30.24F
FERNANDINA BEA FAIR      82  61  47 E10       30.26S
ST AUGUSTINE   SUNNY     78  60  53 NE14      30.26S

STATION/POSITION SKY/WX   TEMP    WIND        PRES    WAVE   SWELL
                          AIR SEA DIR/SP/G            HT/PER HT/PER
                          (F)     (DEG/KT/KT) (MB)    (FT/S) (FT/S)
SHELL POINT                78     190/  7/  9   N/A
KEATON BEACH               76     280/  8/ 11 1022.2F
CEDAR KEY                  77      60/ 18/ 21 1022.3F
FERNANDINA                 75 73   50/ 10/ 15 1024.6F
30.7N   81.3W                 74                N/A     3/11   2/11
MAYPORT                    74 74   70/ 12/ 14 1025.0F
31.4N   80.9W              71 71   60/ 10/ 12 1025.9F   3/11   2/11
ST AUGUSTINE               72 72   40/  9/ 10 1025.0F

$$
FLZ040-043>046-052-053-057-058-063-144-042100-
INTERIOR CENTRAL FLORIDA

CITY           SKY/WX    TMP DP  RH WIND       PRES   REMARKS
OCALA          MOSUNNY   81  55  41 E13G22    30.21F
THE VILLAGES     N/A     82  57  42 NE13G20   30.09F
LEESBURG       MOSUNNY   84  53  34 E17G24    30.20F
SANFORD        MOSUNNY   82  52  35 E21G26    30.21S
ORLANDO EXEC   MOSUNNY   80  53  39 E17G29    30.19F
ORLANDO INTL   PTSUNNY   83  52  34 NE18      30.18F
KISSIMMEE      MOSUNNY   81  52  36 E16G25    30.18F
WINTER HAVEN   MOSUNNY   84  55  36 E20G30    30.18F
LAKELAND       MOSUNNY   82  57  42 MISG      30.17F
BARTOW         MOSUNNY   81  54  39 E17G25    30.18F
OKEECHOBEE     PTSUNNY   79  59  50 E12       30.17F

$$
FLZ041-047-054-059-064-141-147-042100-
EAST CENTRAL FLORIDA

CITY           SKY/WX    TMP DP  RH WIND       PRES   REMARKS
ORMOND BEACH   PTSUNNY   75  63  64 NE15G21   30.23F
DAYTONA BEACH  PTSUNNY   78  61  55 E12G18    30.23F
DELAND           N/A     77  59  53 E13       30.23S
JFK SPACE CTR  LGT RAIN  79  58  48 E14G21    30.20S
CAPE CANAVERAL MOSUNNY   79  60  51 E14G21    30.19F
PATRICK AFB    MOSUNNY   80  60  51 E17G23    30.18F
MELBOURNE      MOSUNNY   80  59  48 E17G25    30.18F
VERO BEACH     PTSUNNY   79  59  50 E16       30.18F
FT PIERCE      PTSUNNY   80  59  48 E14G22    30.17F
STUART         PTSUNNY   77  59  53 E16G23    30.18F

STATION/POSITION SKY/WX   TEMP    WIND        PRES    WAVE   SWELL
                          AIR SEA DIR/SP/G            HT/PER HT/PER
                          (F)     (DEG/KT/KT) (MB)    (FT/S) (FT/S)
28.5N   80.2W              75 77   70/ 14/ 19 1023.1F
28.9N   78.5W              74 78   60/ 17/ 21 1023.3F
TRIDENT PIER               78 77   60/ 13/ 17 1023.4F
28.4N   80.5W                 76                N/A     3/ 6
27.5N   80.2W                 78                N/A     5/14   3/14

$$
FLZ050-056-061-142-242-148-248-149-249-151-251-155-255-
160-260-042100-
WEST CENTRAL FLORIDA

CITY           SKY/WX    TMP DP  RH WIND       PRES   REMARKS
CRYSTAL RIVER  CLOUDY    82  57  42 E14G22    30.18F
INVERNESS      MOCLDY   N/A N/A N/A NE13G22   30.19S
BROOKSVILLE    PTSUNNY   82  55  39 E15G25    30.17F
CLEARWATER     MOSUNNY   83  59  44 E10       30.15F
TAMPA INTL     PTSUNNY   82  54  37 NE9G20    30.16F
TAMPA EXEC     MOSUNNY   84  59  42 E13G20    30.16F
PLANT CITY     MOSUNNY   82  59  44 E15G22    30.18F
MACDILL AFB    MOSUNNY   84  58  41 E20       30.14F
PETER O KNIGHT MOSUNNY   88  59  37 E18G26    30.15F
ST PETERSBURG  MOSUNNY   82  60  47 E15       30.14F
SARASOTA       PTSUNNY   83  55  38 E21G26    30.12F
VENICE         FAIR      84  55  37 E23G30    30.13F

STATION/POSITION SKY/WX   TEMP    WIND        PRES    WAVE   SWELL
                          AIR SEA DIR/SP/G            HT/PER HT/PER
                          (F)     (DEG/KT/KT) (MB)    (FT/S) (FT/S)
CEDAR KEY                  77      60/ 18/ 21 1022.3F
28.5N   84.5W              74 75   70/ 12/ 14 1022.2F   4/ 7   3/ 7
27.3N   84.2W                 77                N/A     5/ 7
CLEARWATER BEACH           80 76   80/  9/ 19 1021.3F
MIDDLE TAMPA BAY           78      80/ 15/ 19 1021.3F
VENICE                     81 79   70/ 18/ 24 1019.8F

$$
FLZ066-069-070-075>078-162-262-165-265-042100-
SOUTHWEST FLORIDA AND KEYS

CITY           SKY/WX    TMP DP  RH WIND       PRES   REMARKS
PUNTA GORDA    PTSUNNY   84  56  38 E17G25    30.14F
FT MYERS       PTSUNNY   83  54  36 E12G23    30.11F
SOUTHWEST INTL PTSUNNY   82  54  37 E16G23    30.12F
NAPLES         CLOUDY    84  53  34 E16G23    30.10F
MARCO ISLAND   PTCLDY    82  54  36 E17       30.10F
IMMOKALEE      PTCLDY   N/A N/A N/A E15G21    30.13F
MARATHON       PTSUNNY   81  64  56 E15       30.08F
KEY WEST NAS   CLOUDY    78  63  59 E20G26    30.08F
KEY WEST INTL  CLOUDY    78  63  59 E17G24    30.09S

STATION/POSITION SKY/WX   TEMP    WIND        PRES    WAVE   SWELL
                          AIR SEA DIR/SP/G            HT/PER HT/PER
                          (F)     (DEG/KT/KT) (MB)    (FT/S) (FT/S)
VENICE                     81 79   70/ 18/ 24 1019.8F
NAPLES                     81 78   80/ 11/ 15 1020.0F
26.0N   85.6W              76 80   80/ 16/ 19 1019.9F   8/ 8   7/ 8
DRY TORTUGAS               77     100/ 25/ 28 1018.9S
NW FL BAY                  77     100/ 19/ 22 1019.9
SAND KEY                   77      80/ 23/ 26 1018.1F
SOMBRERO KEY               77      80/ 22/ 23 1018.5F
LONG KEY                   76 75   70/ 17/ 19 1019.5F
MOLASSES REEF              76 79   70/ 19/ 22 1019.0F

$$
FLZ067-068-071>074-168-172>174-042100-
SOUTHEAST FLORIDA

CITY           SKY/WX    TMP DP  RH WIND       PRES   REMARKS
W PALM BEACH   CLOUDY    78  63  59 E13       30.15F
FT LAUDER-EXEC CLOUDY    80  60  50 E20G25    30.12F
FT LAUDERDALE  CLOUDY    79  59  50 E17       30.12F
POMPANO BEACH  CLOUDY    79  62  56 E14       30.13F
PEMBROKE PINES CLOUDY    78  61  55 E16       30.14F
OPA LOCKA      CLOUDY    78  61  55 E15       30.13F
MIAMI          CLOUDY    79  61  53 NE12G21   30.12F
WEST KENDALL   CLOUDY    79  62  56 E17       30.13S
HOMESTEAD      CLOUDY    78  63  60 NE13      30.11F

STATION/POSITION SKY/WX   TEMP    WIND        PRES    WAVE   SWELL
                          AIR SEA DIR/SP/G            HT/PER HT/PER
                          (F)     (DEG/KT/KT) (MB)    (FT/S) (FT/S)
PORT EVERGLADES            77      70/ 12/ 18 1020.1F
VIRGINIA KEY               76 77   80/ 13/ 16 1020.1S
LAKE WORTH                 76 78   60/ 17/ 19 1020.9F
SETTLEMENT POINT           74      60/ 17/ 19 1021.4F

$$




USA.gov is the U.S. government's official web portal to all federal, state and local government web resources and services.